Regional Weather Roundup
Issued by NWS Glasgow, MT

Home | Current Version | Previous Version | Text Only | Print | Product List | Glossary On
Versions: 1 2 3 4 5 6 7 8 9 10 11 12 13 14 15 16 17 18 19 20 21 22 23 24 25 26 27 28 29 30 31 32 33 34 35 36 37 38 39 40 41 42 43 44 45 46 47 48
000
ASUS45 KGGW 130215
RWRGGW
HOURLY WEATHER ROUNDUP FOR NORTHEAST MONTANA
NATIONAL WEATHER SERVICE GLASGOW MONTANA
800 PM MDT SAT JUL 12 2014

NOTE: "FAIR" INDICATES FEW OR NO CLOUDS BELOW 12,000 FEET WITH NO
SIGNIFICANT WEATHER AND/OR OBSTRUCTIONS TO VISISBILITY.

NORTHEAST MONTANA


CITY           SKY/WX    TMP DP  RH WIND       PRES   REMARKS
GLASGOW        NOT AVBL
PLENTYWOOD       N/A     72  51  47 N9          N/A
WOLF POINT     CLEAR     81  45  28 N14       30.12R
JORDAN           N/A     82  41  23 N10       30.16R
WINNETT          N/A     82  45  27 E8          N/A
SIDNEY         CLEAR     77  48  36 NW8       30.12R
GLENDIVE       CLEAR     79  45  29 N12       30.15R
MALTA            N/A     81  53  37 NE5         N/A
SCOBEY           N/A     72  49  44 NW9       30.11S

FORT PECK REPORTS


CITY           SKY/WX    TMP DP  RH WIND       PRES   REMARKS
FORT PECK        N/A     81  51  35 NW9         N/A
THE PINES        N/A     81  42  25 N7          N/A

SOUTHEAST MONTANA


CITY           SKY/WX    TMP DP  RH WIND       PRES   REMARKS
BILLINGS       MOCLDY    84  42  22 SE8       30.20S
MILES CITY     CLEAR     81  50  33 N12       30.15R
BAKER          CLEAR     76  50  40 NW10      30.15S
LIVINGSTON     NOT AVBL

CENTRAL MONTANA


CITY           SKY/WX    TMP DP  RH WIND       PRES   REMARKS
HAVRE          NOT AVBL
LEWISTOWN      CLEAR     82  40  22 NE6       30.24S
GREAT FALLS    SUNNY     83  40  21 NE7       30.19S
CUT BANK       SUNNY     82  48  30 E8        30.21S
HELENA         MOSUNNY   90  42  18 N7        30.16R
BUTTE          CLOUDY    77  47  34 S8        30.31S
BOZEMAN        NOT AVBL

WESTERN MONTANA


CITY           SKY/WX    TMP DP  RH WIND       PRES   REMARKS
MISSOULA       SUNNY     89  40  17 N13       30.13S
KALISPELL      NOT AVBL

NORTH DAKOTA


CITY           SKY/WX    TMP DP  RH WIND       PRES   REMARKS
WILLISTON      CLEAR     77  51  40 N10       30.08R
DICKINSON      CLEAR     72  52  49 N8        30.09R
MINOT          PTCLDY    71  54  54 NW10      30.01R
BISMARCK       CLEAR     77  54  44 NW10      30.03S

SOUTHERN SASKATCHEWAN


CITY           SKY/WX    TMP DP  RH WIND       PRES   REMARKS
REGINA         CLEAR     66  50  55 N10       30.08
ESTEVAN        NOT AVBL
SWIFT CURRENT  SUNNY     70  55  60 N10G17    30.14R




USA.gov is the U.S. government's official web portal to all federal, state and local government web resources and services.